Regional Weather Roundup
Issued by NWS

Home | Current Version | Previous Version | Text Only | Print | Product List | Glossary On
Versions: 1 2 3 4 5 6 7 8 9 10 11 12 13 14 15 16 17 18 19 20 21 22 23 24 25 26 27 28 29 30 31 32 33 34 35 36 37 38 39 40 41 42 43 44 45 46 47 48 49 50
000
ASUS44 KOUN 232210
RWROK

WEATHER ROUNDUP FOR OKLAHOMA
NATIONAL WEATHER SERVICE NORMAN OK
400 PM CST TUE JAN 23 2018

NOTE: "FAIR" INDICATES FEW OR NO CLOUDS BELOW 12,000 FEET WITH NO
      SIGNIFICANT WEATHER AND/OR OBSTRUCTIONS TO VISIBILITY.

OKZ001>007-009>012-014-015-017-232300-
NORTHWEST OKLAHOMA AND THE PANHANDLE

CITY           SKY/WX    TMP DP  RH WIND       PRES   REMARKS
GAGE           SUNNY     54  17  23 NW13G22   30.25S
GUYMON         SUNNY     51  13  21 N10       30.25S
ENID/WOODRING  SUNNY     54  19  26 W12       30.25R
$$

OKZ016-021>023-033>039-044-045-232300-
SOUTHWEST OKLAHOMA

CITY           SKY/WX    TMP DP  RH WIND       PRES   REMARKS
LAWTON/REGL    SUNNY     58  13  17 N7        30.26S
LAWTON/FT SILL SUNNY     57  20  24 N5        30.24S
FREDERICK      SUNNY     55  14  19 W6        30.24S
CLINTON        SUNNY     55  12  18 N9        30.26R
HOBART         SUNNY     56  14  19 NW7       30.26S
ALTUS AFB      SUNNY     56   8  14 NW8       30.26S
$$

OKZ018>020-024>031-232300-
CENTRAL OKLAHOMA

CITY           SKY/WX    TMP DP  RH WIND       PRES   REMARKS
OKLAHOMA CITY  MOSUNNY   52  13  21 N8        30.26R
OKC/WILEY POST SUNNY     52  15  23 N10       30.27R
OKC/TINKER AFB SUNNY     52  14  22 NW7       30.25S
STILLWATER     SUNNY     52  13  21 W8        30.26S
GUTHRIE        SUNNY     51  15  23 N7        30.26S
$$

OKZ008-013-054>072-232300-
NORTHEAST OKLAHOMA

CITY           SKY/WX    TMP DP  RH WIND       PRES   REMARKS
TULSA          SUNNY     53  17  24 NW12      30.25R
TULSA/JONES    SUNNY     52  16  24 VRB3      30.26R
PONCA CITY     SUNNY     51  16  24 NW8       30.25S
BARTLESVILLE   SUNNY     51  15  23 NW8       30.26R
MUSKOGEE       SUNNY     51  19  28 N12       30.27R
$$

OKZ032-040>043-046>053-073>077-232300-
SOUTH CENTRAL/SOUTHEAST OKLAHOMA

CITY           SKY/WX    TMP DP  RH WIND       PRES   REMARKS
ARDMORE/DWNTWN SUNNY     55  10  16 N5        30.26S
MCALESTER      SUNNY     54  16  22 NW9       30.26R
$$




USA.gov is the U.S. government's official web portal to all federal, state and local government web resources and services.